Regional Weather Roundup
Issued by NWS

Home | Current Version | Previous Version | Text Only | Print | Product List | Glossary Off
Versions: 1 2 3 4 5 6 7 8 9 10 11 12 13 14 15 16 17 18 19 20 21 22 23 24 25 26 27 28 29 30 31 32 33 34 35 36 37 38 39 40 41 42 43 44 45 46 47 48 49 50

294
ASUS43 KFSD 290402
RWRSD

WEATHER ROUNDUP FOR SOUTH DAKOTA
NATIONAL WEATHER SERVICE SIOUX FALLS SD
1100 PM CDT TUE MAR 28 2017

NOTE: "FAIR" INDICATES FEW OR NO CLOUDS BELOW 12,000 FEET WITH NO
SIGNIFICANT WEATHER AND/OR OBSTRUCTIONS TO VISIBILITY.


SDZ001>005-009-010-012>017-290500-
NORTHWEST AND NORTH CENTRAL SOUTH DAKOTA

CITY           SKY/WX    TMP DP  RH WIND       PRES   REMARKS
BUFFALO          N/A     43  40  89 S9        30.06S
FAITH            N/A     43  43 100 MISG      30.15S
MOBRIDGE       CLOUDY    50  40  68 CALM      30.14S
$$

SDZ012>016-024>037-041>051-057-063-072>074-290500-
SOUTHWEST AND SOUTH CENTRAL SOUTH DAKOTA

CITY           SKY/WX    TMP DP  RH WIND       PRES   REMARKS
RAPID CTY ARPT CLOUDY    42  41  96 S8        30.13S FOG
PIERRE         CLOUDY    46  43  89 W8        30.15F
CUSTER         CLOUDY    36  35  96 CALM      30.11S FOG
ELLSWORTH AFB  CLOUDY    43  43 100 S10       30.13
PHILIP         LGT RAIN  44  44 100 SE5       30.16S
PINE RIDGE     LGT RAIN  43  41  93 CALM      30.14R
SPEARFISH      FAIR      36  34  93 CALM      30.13R
WINNER         CLOUDY    44  42  93 W3        30.14F
$$

SDZ004>011-016>023-039-040-290500-
NORTHEAST SOUTH DAKOTA

CITY           SKY/WX    TMP DP  RH WIND       PRES   REMARKS
ABERDEEN       CLOUDY    46  34  62 E7        30.17F
WATERTOWN      CLOUDY    45  36  70 NE3       30.17F
BROOKINGS      PTCLDY    45  37  73 NE6       30.15F
SISSETON         N/A     45  39  79 NW5       30.19S
$$

SDZ017-020-022-023-036>040-048>070-290500-
SOUTHEAST SOUTH DAKOTA

CITY           SKY/WX    TMP DP  RH WIND       PRES   REMARKS
SIOUX FALLS    CLOUDY    44  37  76 NE5       30.14F
HURON          CLOUDY    45  39  79 NE5       30.14F
CHAMBERLAIN    CLOUDY    47  45  92 W7        30.14F
MITCHELL       MOCLDY    48  37  65 E6        30.14F
YANKTON        CLOUDY    50  37  62 E8        30.11S
$$

ABBREVIATIONS USED IN REMARKS
   TC - TEMPERATURE IN CELSIUS
  WCI - WIND CHILL INDEX
   HX - HEAT INDEX
  VSB - VISIBILITY





USA.gov is the U.S. government's official web portal to all federal, state and local government web resources and services.